iso_date,epoch_date,Year,Hour,Min,DOY,POS_DOY,Lat,Lon,BP,Ts,Ta,has_bp,has_ts,has_ta,BuoyID,Buoy_Type,Buoy_Owner,Logistics,Hemisphere
2018-05-03T16:49:26Z,1525366166,2018,16,50,123.701,123.701,84.15267,-66.95672,-999.00,-999.00,-999.0,no,no,no,300234066300060,IT,YorkU,CASIMBO,North
2018-05-03T16:59:31Z,1525366771,2018,17,0,123.708,123.708,84.15268,-66.95671,-999.00,-999.00,-999.0,no,no,no,300234066300060,IT,YorkU,CASIMBO,North
2018-05-03T17:09:36Z,1525367376,2018,17,10,123.715,123.715,84.15268,-66.95674,-999.00,-999.00,-999.0,no,no,no,300234066300060,IT,YorkU,CASIMBO,North
2018-05-03T17:19:40Z,1525367981,2018,17,20,123.722,123.722,84.15266,-66.95681,-999.00,-999.00,-999.0,no,no,no,300234066300060,IT,YorkU,CASIMBO,North
2018-05-03T17:29:45Z,1525368586,2018,17,30,123.729,123.729,84.15265,-66.95688,-999.00,-999.00,-999.0,no,no,no,300234066300060,IT,YorkU,CASIMBO,North
2018-05-03T17:39:50Z,1525369190,2018,17,40,123.736,123.736,84.15264,-66.957,-999.00,-999.00,-999.0,no,no,no,300234066300060,IT,YorkU,CASIMBO,North
2018-05-03T17:49:55Z,1525369795,2018,17,50,123.743,123.743,84.15261,-66.95706,-999.00,-999.00,-999.0,no,no,no,300234066300060,IT,YorkU,CASIMBO,North
2018-05-03T18:00:00Z,1525370400,2018,18,0,123.75,123.75,84.1526,-66.9572,-999.00,-999.00,-999.0,no,no,no,300234066300060,IT,YorkU,CASIMBO,North
2018-05-03T18:10:04Z,1525371005,2018,18,10,123.757,123.757,84.1526,-66.95726,-999.00,-999.00,-999.0,no,no,no,300234066300060,IT,YorkU,CASIMBO,North
2018-05-03T18:20:09Z,1525371610,2018,18,20,123.764,123.764,84.1526,-66.95723,-999.00,-999.00,-999.0,no,no,no,300234066300060,IT,YorkU,CASIMBO,North
2018-05-03T18:30:14Z,1525372214,2018,18,30,123.771,123.771,84.1526,-66.95729,-999.00,-999.00,-999.0,no,no,no,300234066300060,IT,YorkU,CASIMBO,North
2018-05-03T18:40:19Z,1525372819,2018,18,40,123.778,123.778,84.15259,-66.95727,-999.00,-999.00,-999.0,no,no,no,300234066300060,IT,YorkU,CASIMBO,North
2018-05-03T18:50:24Z,1525373424,2018,18,50,123.785,123.785,84.15259,-66.95727,-999.00,-999.00,-999.0,no,no,no,300234066300060,IT,YorkU,CASIMBO,North
2018-05-03T19:00:28Z,1525374029,2018,19,0,123.792,123.792,84.15258,-66.95731,-999.00,-999.00,-999.0,no,no,no,300234066300060,IT,YorkU,CASIMBO,North
2018-05-03T19:10:33Z,1525374634,2018,19,10,123.799,123.799,84.15258,-66.9573,-999.00,-999.00,-999.0,no,no,no,300234066300060,IT,YorkU,CASIMBO,North
2018-05-03T19:20:38Z,1525375238,2018,19,20,123.806,123.806,84.15258,-66.9573,-999.00,-999.00,-999.0,no,no,no,300234066300060,IT,YorkU,CASIMBO,North
2018-05-03T19:29:16Z,1525375757,2018,19,30,123.812,123.812,84.15258,-66.95734,-999.00,-999.00,-999.0,no,no,no,300234066300060,IT,YorkU,CASIMBO,North
2018-05-03T19:39:21Z,1525376362,2018,19,40,123.819,123.819,84.15258,-66.95738,-999.00,-999.00,-999.0,no,no,no,300234066300060,IT,YorkU,CASIMBO,North
2018-05-03T19:49:26Z,1525376966,2018,19,50,123.826,123.826,84.15258,-66.95737,-999.00,-999.00,-999.0,no,no,no,300234066300060,IT,YorkU,CASIMBO,North
2018-05-03T19:59:31Z,1525377571,2018,20,0,123.833,123.833,84.15257,-66.95749,-999.00,-999.00,-999.0,no,no,no,300234066300060,IT,YorkU,CASIMBO,North
2018-05-03T20:09:36Z,1525378176,2018,20,10,123.84,123.84,84.15257,-66.95754,-999.00,-999.00,-999.0,no,no,no,300234066300060,IT,YorkU,CASIMBO,North
2018-05-03T20:19:40Z,1525378781,2018,20,20,123.847,123.847,84.15257,-66.95758,-999.00,-999.00,-999.0,no,no,no,300234066300060,IT,YorkU,CASIMBO,North
2018-05-03T20:29:45Z,1525379386,2018,20,30,123.854,123.854,84.15257,-66.95751,-999.00,-999.00,-999.0,no,no,no,300234066300060,IT,YorkU,CASIMBO,North
2018-05-03T20:39:50Z,1525379990,2018,20,40,123.861,123.861,84.15256,-66.95752,-999.00,-999.00,-999.0,no,no,no,300234066300060,IT,YorkU,CASIMBO,North
2018-05-03T20:49:55Z,1525380595,2018,20,50,123.868,123.868,84.15256,-66.95753,-999.00,-999.00,-999.0,no,no,no,300234066300060,IT,YorkU,CASIMBO,North
2018-05-03T21:00:00Z,1525381200,2018,21,0,123.875,123.875,84.15256,-66.95738,-999.00,-999.00,-999.0,no,no,no,300234066300060,IT,YorkU,CASIMBO,North
2018-05-03T21:10:04Z,1525381805,2018,21,10,123.882,123.882,84.15255,-66.95737,-999.00,-999.00,-999.0,no,no,no,300234066300060,IT,YorkU,CASIMBO,North
2018-05-03T21:20:09Z,1525382410,2018,21,20,123.889,123.889,84.15255,-66.95734,-999.00,-999.00,-999.0,no,no,no,300234066300060,IT,YorkU,CASIMBO,North
2018-05-03T21:30:14Z,1525383014,2018,21,30,123.896,123.896,84.15254,-66.95714,-999.00,-999.00,-999.0,no,no,no,300234066300060,IT,YorkU,CASIMBO,North
2018-05-03T21:44:38Z,1525383878,2018,21,44,123.906,123.906,84.15254,-66.95714,-999.00,-999.00,-999.0,no,no,no,300234066300060,IT,YorkU,CASIMBO,North
2018-05-03T21:50:24Z,1525384224,2018,21,50,123.91,123.91,84.15255,-66.95749,-999.00,-999.00,-999.0,no,no,no,300234066300060,IT,YorkU,CASIMBO,North
2018-05-03T22:00:28Z,1525384829,2018,22,0,123.917,123.917,84.15255,-66.95747,-999.00,-999.00,-999.0,no,no,no,300234066300060,IT,YorkU,CASIMBO,North
2018-05-03T22:10:33Z,1525385434,2018,22,10,123.924,123.924,84.15255,-66.95748,-999.00,-999.00,-999.0,no,no,no,300234066300060,IT,YorkU,CASIMBO,North
2018-05-03T22:20:38Z,1525386038,2018,22,20,123.931,123.931,84.15254,-66.95749,-999.00,-999.00,-999.0,no,no,no,300234066300060,IT,YorkU,CASIMBO,North
2018-05-03T22:30:43Z,1525386643,2018,22,30,123.938,123.938,84.15254,-66.95748,-999.00,-999.00,-999.0,no,no,no,300234066300060,IT,YorkU,CASIMBO,North
2018-05-03T22:39:21Z,1525387162,2018,22,40,123.944,123.944,84.15254,-66.95749,-999.00,-999.00,-999.0,no,no,no,300234066300060,IT,YorkU,CASIMBO,North
2018-05-03T22:49:26Z,1525387766,2018,22,50,123.951,123.951,84.15254,-66.95747,-999.00,-999.00,-999.0,no,no,no,300234066300060,IT,YorkU,CASIMBO,North
2018-05-03T22:59:31Z,1525388371,2018,23,0,123.958,123.958,84.15254,-66.95746,-999.00,-999.00,-999.0,no,no,no,300234066300060,IT,YorkU,CASIMBO,North
2018-05-03T23:09:36Z,1525388976,2018,23,10,123.965,123.965,84.15254,-66.95746,-999.00,-999.00,-999.0,no,no,no,300234066300060,IT,YorkU,CASIMBO,North
2018-05-03T23:19:40Z,1525389581,2018,23,20,123.972,123.972,84.15253,-66.95742,-999.00,-999.00,-999.0,no,no,no,300234066300060,IT,YorkU,CASIMBO,North
2018-05-03T23:29:45Z,1525390186,2018,23,30,123.979,123.979,84.15254,-66.95743,-999.00,-999.00,-999.0,no,no,no,300234066300060,IT,YorkU,CASIMBO,North
2018-05-03T23:39:50Z,1525390790,2018,23,40,123.986,123.986,84.15253,-66.95743,-999.00,-999.00,-999.0,no,no,no,300234066300060,IT,YorkU,CASIMBO,North
2018-05-03T23:49:55Z,1525391395,2018,23,50,123.993,123.993,84.15254,-66.95738,-999.00,-999.00,-999.0,no,no,no,300234066300060,IT,YorkU,CASIMBO,North
2018-05-04T00:00:00Z,1525392000,2018,0,0,124.0,124.0,84.15253,-66.95745,-999.00,-999.00,-999.0,no,no,no,300234066300060,IT,YorkU,CASIMBO,North
2018-05-04T00:10:04Z,1525392605,2018,0,10,124.007,124.007,84.15253,-66.95748,-999.00,-999.00,-999.0,no,no,no,300234066300060,IT,YorkU,CASIMBO,North
2018-05-04T00:20:09Z,1525393210,2018,0,20,124.014,124.014,84.15253,-66.95747,-999.00,-999.00,-999.0,no,no,no,300234066300060,IT,YorkU,CASIMBO,North
2018-05-04T00:30:14Z,1525393814,2018,0,30,124.021,124.021,84.15253,-66.95741,-999.00,-999.00,-999.0,no,no,no,300234066300060,IT,YorkU,CASIMBO,North
2018-05-04T00:40:19Z,1525394419,2018,0,40,124.028,124.028,84.15253,-66.95739,-999.00,-999.00,-999.0,no,no,no,300234066300060,IT,YorkU,CASIMBO,North
2018-05-04T00:50:24Z,1525395024,2018,0,50,124.035,124.035,84.15253,-66.95734,-999.00,-999.00,-999.0,no,no,no,300234066300060,IT,YorkU,CASIMBO,North
2018-05-04T01:00:28Z,1525395629,2018,1,0,124.042,124.042,84.15253,-66.95734,-999.00,-999.00,-999.0,no,no,no,300234066300060,IT,YorkU,CASIMBO,North
2018-05-04T01:10:33Z,1525396234,2018,1,10,124.049,124.049,84.15252,-66.95728,-999.00,-999.00,-999.0,no,no,no,300234066300060,IT,YorkU,CASIMBO,North
2018-05-04T01:20:38Z,1525396838,2018,1,20,124.056,124.056,84.15252,-66.95725,-999.00,-999.00,-999.0,no,no,no,300234066300060,IT,YorkU,CASIMBO,North
2018-05-04T01:29:16Z,1525397357,2018,1,30,124.062,124.062,84.1525,-66.95692,-999.00,-999.00,-999.0,no,no,no,300234066300060,IT,YorkU,CASIMBO,North
2018-05-04T01:39:21Z,1525397962,2018,1,40,124.069,124.069,84.15252,-66.95726,-999.00,-999.00,-999.0,no,no,no,300234066300060,IT,YorkU,CASIMBO,North
2018-05-04T01:49:26Z,1525398566,2018,1,50,124.076,124.076,84.15252,-66.95721,-999.00,-999.00,-999.0,no,no,no,300234066300060,IT,YorkU,CASIMBO,North
2018-05-04T01:59:31Z,1525399171,2018,2,0,124.083,124.083,84.15253,-66.95723,-999.00,-999.00,-999.0,no,no,no,300234066300060,IT,YorkU,CASIMBO,North
2018-05-04T02:09:36Z,1525399776,2018,2,10,124.09,124.09,84.15252,-66.95724,-999.00,-999.00,-999.0,no,no,no,300234066300060,IT,YorkU,CASIMBO,North
2018-05-04T02:19:40Z,1525400381,2018,2,20,124.097,124.097,84.15252,-66.95727,-999.00,-999.00,-999.0,no,no,no,300234066300060,IT,YorkU,CASIMBO,North
2018-05-04T02:29:45Z,1525400986,2018,2,30,124.104,124.104,84.15253,-66.95728,-999.00,-999.00,-999.0,no,no,no,300234066300060,IT,YorkU,CASIMBO,North
2018-05-04T02:39:50Z,1525401590,2018,2,40,124.111,124.111,84.15252,-66.95726,-999.00,-999.00,-999.0,no,no,no,300234066300060,IT,YorkU,CASIMBO,North
2018-05-04T02:49:55Z,1525402195,2018,2,50,124.118,124.118,84.15252,-66.95724,-999.00,-999.00,-999.0,no,no,no,300234066300060,IT,YorkU,CASIMBO,North
2018-05-04T03:00:00Z,1525402800,2018,3,0,124.125,124.125,84.15252,-66.95739,-999.00,-999.00,-999.0,no,no,no,300234066300060,IT,YorkU,CASIMBO,North
2018-05-04T03:10:04Z,1525403405,2018,3,10,124.132,124.132,84.15252,-66.95742,-999.00,-999.00,-999.0,no,no,no,300234066300060,IT,YorkU,CASIMBO,North
2018-05-04T03:20:09Z,1525404010,2018,3,20,124.139,124.139,84.15252,-66.95742,-999.00,-999.00,-999.0,no,no,no,300234066300060,IT,YorkU,CASIMBO,North
2018-05-04T03:30:14Z,1525404614,2018,3,30,124.146,124.146,84.15252,-66.95744,-999.00,-999.00,-999.0,no,no,no,300234066300060,IT,YorkU,CASIMBO,North
2018-05-04T03:40:19Z,1525405219,2018,3,40,124.153,124.153,84.15252,-66.95745,-999.00,-999.00,-999.0,no,no,no,300234066300060,IT,YorkU,CASIMBO,North
2018-05-04T03:50:24Z,1525405824,2018,3,50,124.16,124.16,84.15252,-66.95749,-999.00,-999.00,-999.0,no,no,no,300234066300060,IT,YorkU,CASIMBO,North
2018-05-04T04:00:28Z,1525406429,2018,4,0,124.167,124.167,84.15253,-66.9575,-999.00,-999.00,-999.0,no,no,no,300234066300060,IT,YorkU,CASIMBO,North
2018-05-04T04:10:33Z,1525407034,2018,4,10,124.174,124.174,84.15253,-66.95754,-999.00,-999.00,-999.0,no,no,no,300234066300060,IT,YorkU,CASIMBO,North
2018-05-04T04:20:38Z,1525407638,2018,4,20,124.181,124.181,84.15253,-66.95755,-999.00,-999.00,-999.0,no,no,no,300234066300060,IT,YorkU,CASIMBO,North
2018-05-04T04:30:43Z,1525408243,2018,4,30,124.188,124.188,84.15252,-66.95751,-999.00,-999.00,-999.0,no,no,no,300234066300060,IT,YorkU,CASIMBO,North
2018-05-04T04:39:21Z,1525408762,2018,4,40,124.194,124.194,84.15253,-66.95757,-999.00,-999.00,-999.0,no,no,no,300234066300060,IT,YorkU,CASIMBO,North
2018-05-04T04:49:26Z,1525409366,2018,4,50,124.201,124.201,84.15253,-66.95758,-999.00,-999.00,-999.0,no,no,no,300234066300060,IT,YorkU,CASIMBO,North
2018-05-04T04:59:31Z,1525409971,2018,5,0,124.208,124.208,84.15254,-66.95758,-999.00,-999.00,-999.0,no,no,no,300234066300060,IT,YorkU,CASIMBO,North
2018-05-04T05:09:36Z,1525410576,2018,5,10,124.215,124.215,84.15253,-66.9576,-999.00,-999.00,-999.0,no,no,no,300234066300060,IT,YorkU,CASIMBO,North
2018-05-04T05:19:40Z,1525411181,2018,5,20,124.222,124.222,84.15253,-66.95744,-999.00,-999.00,-999.0,no,no,no,300234066300060,IT,YorkU,CASIMBO,North
2018-05-04T05:29:45Z,1525411786,2018,5,30,124.229,124.229,84.15253,-66.95744,-999.00,-999.00,-999.0,no,no,no,300234066300060,IT,YorkU,CASIMBO,North
2018-05-04T05:39:50Z,1525412390,2018,5,40,124.236,124.236,84.15253,-66.95743,-999.00,-999.00,-999.0,no,no,no,300234066300060,IT,YorkU,CASIMBO,North
2018-05-04T05:49:55Z,1525412995,2018,5,50,124.243,124.243,84.15253,-66.95745,-999.00,-999.00,-999.0,no,no,no,300234066300060,IT,YorkU,CASIMBO,North
2018-05-04T06:00:00Z,1525413600,2018,6,0,124.25,124.25,84.15253,-66.95746,-999.00,-999.00,-999.0,no,no,no,300234066300060,IT,YorkU,CASIMBO,North
2018-05-04T06:10:04Z,1525414205,2018,6,10,124.257,124.257,84.15254,-66.95748,-999.00,-999.00,-999.0,no,no,no,300234066300060,IT,YorkU,CASIMBO,North
2018-05-04T06:20:09Z,1525414810,2018,6,20,124.264,124.264,84.15254,-66.95746,-999.00,-999.00,-999.0,no,no,no,300234066300060,IT,YorkU,CASIMBO,North
2018-05-04T06:30:14Z,1525415414,2018,6,30,124.271,124.271,84.15254,-66.95774,-999.00,-999.00,-999.0,no,no,no,300234066300060,IT,YorkU,CASIMBO,North
2018-05-04T06:40:19Z,1525416019,2018,6,40,124.278,124.278,84.15254,-66.95749,-999.00,-999.00,-999.0,no,no,no,300234066300060,IT,YorkU,CASIMBO,North
2018-05-04T06:50:24Z,1525416624,2018,6,50,124.285,124.285,84.15254,-66.95749,-999.00,-999.00,-999.0,no,no,no,300234066300060,IT,YorkU,CASIMBO,North
2018-05-04T07:00:28Z,1525417229,2018,7,0,124.292,124.292,84.15254,-66.9575,-999.00,-999.00,-999.0,no,no,no,300234066300060,IT,YorkU,CASIMBO,North
2018-05-04T07:10:33Z,1525417834,2018,7,10,124.299,124.299,84.15255,-66.95755,-999.00,-999.00,-999.0,no,no,no,300234066300060,IT,YorkU,CASIMBO,North
2018-05-04T07:20:38Z,1525418438,2018,7,20,124.306,124.306,84.15254,-66.95758,-999.00,-999.00,-999.0,no,no,no,300234066300060,IT,YorkU,CASIMBO,North
2018-05-04T07:29:16Z,1525418957,2018,7,30,124.312,124.312,84.15255,-66.95759,-999.00,-999.00,-999.0,no,no,no,300234066300060,IT,YorkU,CASIMBO,North
2018-05-04T07:39:21Z,1525419562,2018,7,40,124.319,124.319,84.15255,-66.95759,-999.00,-999.00,-999.0,no,no,no,300234066300060,IT,YorkU,CASIMBO,North
2018-05-04T07:49:26Z,1525420166,2018,7,50,124.326,124.326,84.15255,-66.95756,-999.00,-999.00,-999.0,no,no,no,300234066300060,IT,YorkU,CASIMBO,North
2018-05-04T07:59:31Z,1525420771,2018,8,0,124.333,124.333,84.15254,-66.9575,-999.00,-999.00,-999.0,no,no,no,300234066300060,IT,YorkU,CASIMBO,North
2018-05-04T08:09:36Z,1525421376,2018,8,10,124.34,124.34,84.15254,-66.95748,-999.00,-999.00,-999.0,no,no,no,300234066300060,IT,YorkU,CASIMBO,North
2018-05-04T08:19:40Z,1525421981,2018,8,20,124.347,124.347,84.15254,-66.95749,-999.00,-999.00,-999.0,no,no,no,300234066300060,IT,YorkU,CASIMBO,North
2018-05-04T08:29:45Z,1525422586,2018,8,30,124.354,124.354,84.15253,-66.95751,-999.00,-999.00,-999.0,no,no,no,300234066300060,IT,YorkU,CASIMBO,North
2018-05-04T08:39:50Z,1525423190,2018,8,40,124.361,124.361,84.15253,-66.95753,-999.00,-999.00,-999.0,no,no,no,300234066300060,IT,YorkU,CASIMBO,North
2018-05-04T08:49:55Z,1525423795,2018,8,50,124.368,124.368,84.15253,-66.95752,-999.00,-999.00,-999.0,no,no,no,300234066300060,IT,YorkU,CASIMBO,North
2018-05-04T09:00:00Z,1525424400,2018,9,0,124.375,124.375,84.15252,-66.9575,-999.00,-999.00,-999.0,no,no,no,300234066300060,IT,YorkU,CASIMBO,North
2018-05-04T09:10:04Z,1525425005,2018,9,10,124.382,124.382,84.15251,-66.9575,-999.00,-999.00,-999.0,no,no,no,300234066300060,IT,YorkU,CASIMBO,North
2018-05-04T09:20:09Z,1525425610,2018,9,20,124.389,124.389,84.15251,-66.95748,-999.00,-999.00,-999.0,no,no,no,300234066300060,IT,YorkU,CASIMBO,North
2018-05-04T09:30:14Z,1525426214,2018,9,30,124.396,124.396,84.15247,-66.95779,-999.00,-999.00,-999.0,no,no,no,300234066300060,IT,YorkU,CASIMBO,North
2018-05-04T09:40:19Z,1525426819,2018,9,40,124.403,124.403,84.15254,-66.95741,-999.00,-999.00,-999.0,no,no,no,300234066300060,IT,YorkU,CASIMBO,North
2018-05-04T09:50:24Z,1525427424,2018,9,50,124.41,124.41,84.15254,-66.95747,-999.00,-999.00,-999.0,no,no,no,300234066300060,IT,YorkU,CASIMBO,North
2018-05-04T10:00:28Z,1525428029,2018,10,0,124.417,124.417,84.15254,-66.95745,-999.00,-999.00,-999.0,no,no,no,300234066300060,IT,YorkU,CASIMBO,North
2018-05-04T10:10:33Z,1525428634,2018,10,10,124.424,124.424,84.15254,-66.95754,-999.00,-999.00,-999.0,no,no,no,300234066300060,IT,YorkU,CASIMBO,North
2018-05-04T10:20:38Z,1525429238,2018,10,20,124.431,124.431,84.15254,-66.95756,-999.00,-999.00,-999.0,no,no,no,300234066300060,IT,YorkU,CASIMBO,North
2018-05-04T10:30:43Z,1525429843,2018,10,30,124.438,124.438,84.15254,-66.95755,-999.00,-999.00,-999.0,no,no,no,300234066300060,IT,YorkU,CASIMBO,North
2018-05-04T10:39:21Z,1525430362,2018,10,40,124.444,124.444,84.15253,-66.95762,-999.00,-999.00,-999.0,no,no,no,300234066300060,IT,YorkU,CASIMBO,North
2018-05-04T10:49:26Z,1525430966,2018,10,50,124.451,124.451,84.15252,-66.95762,-999.00,-999.00,-999.0,no,no,no,300234066300060,IT,YorkU,CASIMBO,North
2018-05-04T10:59:31Z,1525431571,2018,11,0,124.458,124.458,84.15252,-66.95768,-999.00,-999.00,-999.0,no,no,no,300234066300060,IT,YorkU,CASIMBO,North
2018-05-04T11:09:36Z,1525432176,2018,11,10,124.465,124.465,84.15251,-66.95783,-999.00,-999.00,-999.0,no,no,no,300234066300060,IT,YorkU,CASIMBO,North
2018-05-04T11:19:40Z,1525432781,2018,11,20,124.472,124.472,84.15248,-66.95782,-999.00,-999.00,-999.0,no,no,no,300234066300060,IT,YorkU,CASIMBO,North
2018-05-04T11:29:45Z,1525433386,2018,11,30,124.479,124.479,84.15247,-66.95791,-999.00,-999.00,-999.0,no,no,no,300234066300060,IT,YorkU,CASIMBO,North
2018-05-04T11:39:50Z,1525433990,2018,11,40,124.486,124.486,84.15247,-66.95793,-999.00,-999.00,-999.0,no,no,no,300234066300060,IT,YorkU,CASIMBO,North
2018-05-04T11:49:55Z,1525434595,2018,11,50,124.493,124.493,84.15247,-66.95796,-999.00,-999.00,-999.0,no,no,no,300234066300060,IT,YorkU,CASIMBO,North
2018-05-04T12:00:00Z,1525435200,2018,12,0,124.5,124.5,84.15247,-66.95797,-999.00,-999.00,-999.0,no,no,no,300234066300060,IT,YorkU,CASIMBO,North
2018-05-04T12:10:04Z,1525435805,2018,12,10,124.507,124.507,84.15247,-66.95802,-999.00,-999.00,-999.0,no,no,no,300234066300060,IT,YorkU,CASIMBO,North
2018-05-04T12:20:09Z,1525436410,2018,12,20,124.514,124.514,84.15247,-66.95807,-999.00,-999.00,-999.0,no,no,no,300234066300060,IT,YorkU,CASIMBO,North
2018-05-04T12:30:14Z,1525437014,2018,12,30,124.521,124.521,84.15246,-66.95788,-999.00,-999.00,-999.0,no,no,no,300234066300060,IT,YorkU,CASIMBO,North
2018-05-04T12:40:19Z,1525437619,2018,12,40,124.528,124.528,84.15247,-66.95802,-999.00,-999.00,-999.0,no,no,no,300234066300060,IT,YorkU,CASIMBO,North
2018-05-04T12:50:24Z,1525438224,2018,12,50,124.535,124.535,84.15247,-66.95806,-999.00,-999.00,-999.0,no,no,no,300234066300060,IT,YorkU,CASIMBO,North
2018-05-04T13:00:28Z,1525438829,2018,13,0,124.542,124.542,84.15247,-66.95805,-999.00,-999.00,-999.0,no,no,no,300234066300060,IT,YorkU,CASIMBO,North
2018-05-04T13:10:33Z,1525439434,2018,13,10,124.549,124.549,84.15246,-66.95809,-999.00,-999.00,-999.0,no,no,no,300234066300060,IT,YorkU,CASIMBO,North
2018-05-04T13:20:38Z,1525440038,2018,13,20,124.556,124.556,84.15246,-66.95813,-999.00,-999.00,-999.0,no,no,no,300234066300060,IT,YorkU,CASIMBO,North
2018-05-04T13:29:16Z,1525440557,2018,13,30,124.562,124.562,84.15244,-66.95824,-999.00,-999.00,-999.0,no,no,no,300234066300060,IT,YorkU,CASIMBO,North
2018-05-04T13:39:21Z,1525441162,2018,13,40,124.569,124.569,84.15242,-66.95833,-999.00,-999.00,-999.0,no,no,no,300234066300060,IT,YorkU,CASIMBO,North
2018-05-04T13:49:26Z,1525441766,2018,13,50,124.576,124.576,84.15241,-66.95848,-999.00,-999.00,-999.0,no,no,no,300234066300060,IT,YorkU,CASIMBO,North
2018-05-04T13:59:31Z,1525442371,2018,14,0,124.583,124.583,84.15241,-66.95842,-999.00,-999.00,-999.0,no,no,no,300234066300060,IT,YorkU,CASIMBO,North
2018-05-04T14:09:36Z,1525442976,2018,14,10,124.59,124.59,84.15241,-66.95855,-999.00,-999.00,-999.0,no,no,no,300234066300060,IT,YorkU,CASIMBO,North
2018-05-04T14:19:40Z,1525443581,2018,14,20,124.597,124.597,84.15241,-66.9586,-999.00,-999.00,-999.0,no,no,no,300234066300060,IT,YorkU,CASIMBO,North
2018-05-04T14:29:45Z,1525444186,2018,14,30,124.604,124.604,84.1524,-66.9586,-999.00,-999.00,-999.0,no,no,no,300234066300060,IT,YorkU,CASIMBO,North
2018-05-04T14:39:50Z,1525444790,2018,14,40,124.611,124.611,84.1524,-66.95861,-999.00,-999.00,-999.0,no,no,no,300234066300060,IT,YorkU,CASIMBO,North
2018-05-04T14:49:55Z,1525445395,2018,14,50,124.618,124.618,84.1524,-66.9586,-999.00,-999.00,-999.0,no,no,no,300234066300060,IT,YorkU,CASIMBO,North
2018-05-04T15:00:00Z,1525446000,2018,15,0,124.625,124.625,84.1524,-66.95854,-999.00,-999.00,-999.0,no,no,no,300234066300060,IT,YorkU,CASIMBO,North
2018-05-04T15:10:04Z,1525446605,2018,15,10,124.632,124.632,84.1524,-66.95857,-999.00,-999.00,-999.0,no,no,no,300234066300060,IT,YorkU,CASIMBO,North
2018-05-04T15:20:09Z,1525447210,2018,15,20,124.639,124.639,84.1524,-66.95852,-999.00,-999.00,-999.0,no,no,no,300234066300060,IT,YorkU,CASIMBO,North
2018-05-04T15:30:14Z,1525447814,2018,15,30,124.646,124.646,84.1524,-66.95877,-999.00,-999.00,-999.0,no,no,no,300234066300060,IT,YorkU,CASIMBO,North
2018-05-04T15:40:19Z,1525448419,2018,15,40,124.653,124.653,84.1524,-66.95855,-999.00,-999.00,-999.0,no,no,no,300234066300060,IT,YorkU,CASIMBO,North
2018-05-04T15:50:24Z,1525449024,2018,15,50,124.66,124.66,84.1524,-66.95853,-999.00,-999.00,-999.0,no,no,no,300234066300060,IT,YorkU,CASIMBO,North
2018-05-04T16:00:28Z,1525449629,2018,16,0,124.667,124.667,84.15239,-66.9585,-999.00,-999.00,-999.0,no,no,no,300234066300060,IT,YorkU,CASIMBO,North
2018-05-04T16:10:33Z,1525450234,2018,16,10,124.674,124.674,84.15239,-66.95851,-999.00,-999.00,-999.0,no,no,no,300234066300060,IT,YorkU,CASIMBO,North
2018-05-04T16:20:38Z,1525450838,2018,16,20,124.681,124.681,84.15238,-66.95862,-999.00,-999.00,-999.0,no,no,no,300234066300060,IT,YorkU,CASIMBO,North
2018-05-04T16:30:43Z,1525451443,2018,16,30,124.688,124.688,84.15235,-66.95876,-999.00,-999.00,-999.0,no,no,no,300234066300060,IT,YorkU,CASIMBO,North
2018-05-04T16:39:21Z,1525451962,2018,16,40,124.694,124.694,84.15232,-66.9588,-999.00,-999.00,-999.0,no,no,no,300234066300060,IT,YorkU,CASIMBO,North
2018-05-04T16:49:26Z,1525452566,2018,16,50,124.701,124.701,84.15231,-66.95898,-999.00,-999.00,-999.0,no,no,no,300234066300060,IT,YorkU,CASIMBO,North
2018-05-04T16:59:31Z,1525453171,2018,17,0,124.708,124.708,84.15233,-66.95944,-999.00,-999.00,-999.0,no,no,no,300234066300060,IT,YorkU,CASIMBO,North
2018-05-04T17:09:36Z,1525453776,2018,17,10,124.715,124.715,84.15233,-66.95971,-999.00,-999.00,-999.0,no,no,no,300234066300060,IT,YorkU,CASIMBO,North
2018-05-04T17:19:40Z,1525454381,2018,17,20,124.722,124.722,84.15231,-66.96008,-999.00,-999.00,-999.0,no,no,no,300234066300060,IT,YorkU,CASIMBO,North
2018-05-04T17:29:45Z,1525454986,2018,17,30,124.729,124.729,84.15231,-66.96038,-999.00,-999.00,-999.0,no,no,no,300234066300060,IT,YorkU,CASIMBO,North
2018-05-04T17:39:50Z,1525455590,2018,17,40,124.736,124.736,84.1523,-66.96069,-999.00,-999.00,-999.0,no,no,no,300234066300060,IT,YorkU,CASIMBO,North
2018-05-04T17:49:55Z,1525456195,2018,17,50,124.743,124.743,84.15229,-66.96093,-999.00,-999.00,-999.0,no,no,no,300234066300060,IT,YorkU,CASIMBO,North
2018-05-04T18:00:00Z,1525456800,2018,18,0,124.75,124.75,84.15229,-66.96107,-999.00,-999.00,-999.0,no,no,no,300234066300060,IT,YorkU,CASIMBO,North
2018-05-04T18:10:04Z,1525457405,2018,18,10,124.757,124.757,84.15229,-66.96113,-999.00,-999.00,-999.0,no,no,no,300234066300060,IT,YorkU,CASIMBO,North
2018-05-04T18:20:09Z,1525458010,2018,18,20,124.764,124.764,84.15229,-66.96112,-999.00,-999.00,-999.0,no,no,no,300234066300060,IT,YorkU,CASIMBO,North
2018-05-04T18:30:14Z,1525458614,2018,18,30,124.771,124.771,84.15227,-66.96075,-999.00,-999.00,-999.0,no,no,no,300234066300060,IT,YorkU,CASIMBO,North
2018-05-04T18:40:19Z,1525459219,2018,18,40,124.778,124.778,84.15229,-66.96115,-999.00,-999.00,-999.0,no,no,no,300234066300060,IT,YorkU,CASIMBO,North
2018-05-04T18:50:24Z,1525459824,2018,18,50,124.785,124.785,84.15228,-66.96117,-999.00,-999.00,-999.0,no,no,no,300234066300060,IT,YorkU,CASIMBO,North
2018-05-04T19:00:28Z,1525460429,2018,19,0,124.792,124.792,84.15228,-66.96131,-999.00,-999.00,-999.0,no,no,no,300234066300060,IT,YorkU,CASIMBO,North
2018-05-04T19:10:33Z,1525461034,2018,19,10,124.799,124.799,84.15228,-66.96139,-999.00,-999.00,-999.0,no,no,no,300234066300060,IT,YorkU,CASIMBO,North
2018-05-04T19:20:38Z,1525461638,2018,19,20,124.806,124.806,84.15227,-66.96155,-999.00,-999.00,-999.0,no,no,no,300234066300060,IT,YorkU,CASIMBO,North
2018-05-04T19:29:16Z,1525462157,2018,19,30,124.812,124.812,84.15224,-66.96191,-999.00,-999.00,-999.0,no,no,no,300234066300060,IT,YorkU,CASIMBO,North